SCIC

General Freire Airport

Airport
ICAO code
SCIC
Summary
ICAO Region
CARSAM
ICAO Territory
Location

Curico, Maule

Serving
Curico
Elevation
722 ft
Coordinates
34° 58' 0" S , 71° 12' 59" W
KCC
Metar
SCIC 181800Z 17006KT 140V210 0550 FG OVC002 08/08 Q1021

Airport located on northeastern side of Curico, Maule, Chile.

Climatology

Temperate mediterranean climate (Köppen climate classification Csb)

Runways

Designator Length Width Surface Rops
1/19 800 18 ASP No/No

Airport map

Aerial View

SKYbrary Partners:

Safety knowledge contributed by: